Lid_Strength_Index
0 1 0 0 0 0 0 0 -1 -1 -1 -1 -1 -1 -1 -1 -1 -1 -0 -0 -0 0
0 0 0 -0 -0 0 -0 -0 -1 -1 -1 -1 -1 -1 -1 -0 -0 -0 -0 -0 -0 0
0 0 -0 -0 0 -0 -0 -0 -0 -0 -0 -0 -1 -1 -1 -0 -0 -0 0 -0 0 -0
1 0 0 0 0 -0 -0 -0 -0 -0 -0 -0 -0 -0 -0 -0 -0 0 -0 -0 0 0
0 0 0 0 0 -0 -0 -0 -0 -1 -0 -0 -0 -0 -0 0 -0 0 1 0 0 1
1 1 1 0 0 0 -0 -0 -0 -0 -0 -0 -0 -0 -0 -0 0 0 0 0 0 0
1 1 1 0 0 0 -0 0 -0 -0 -0 -0 -0 -0 -0 -0 0 -0 0 -0 -0 0
1 0 0 0 0 0 -0 -0 -0 -0 -0 -0 -0 0 -0 -0 0 0 0 0 -0 -0
1 1 1 1 0 0 0 0 0 0 0 0 0 2 3 1 0 0 0 1 0 -0
1 1 1 0 1 1 1 0 0 0 0 0 0 4 4 3 0 0 1 0 1 0
1 1 1 1 1 1 1 1 1 0 0 0 0 6 6 4 0 0 0 0 0 0
1 1 1 1 1 1 1 1 1 0 0 1 2 8 7 3 -0 0 0 0 -0 -0
1 1 1 1 1 1 1 1 1 1 0 3 2 8 8 4 2 3 2 0 -0 1
1 1 1 1 1 1 1 1 1 2 2 3 4 6 9 9 1 1 1 1 1 0